Home   Weather   Utrecht   Past weeks
Flag for Netherlands

Past Weather in Utrecht, Netherlands — Yesterday and Last 2 Weeks

Now
42 °F

Overcast.


Feels Like: 39 °F
Forecast: 55 / 41 °F
Wind: 5 mph from Southwest

Location: De Bilt

Current Time: Feb 20, 2019 at 4:51:55 am

Latest Report: Feb 20, 2019 at 4:00 am


Visibility: 10 mi

Pressure: 30.12 "Hg

Humidity: 88%

Dew Point: 39 °F

Location of UtrechtLocation

Past Weather in Utrecht — Graph

°F

Utrecht Temperature Yesterday

Maximum temperature yesterday: 51 °F (at 4:00 pm)
Minimum temperature yesterday: 42 °F (at 7:00 am)
Average temperature yesterday: 46 °F

High & Low Weather Summary for the Past Weeks

 TemperatureHumidityPressure
High59 °F (Feb 17, 4:00 pm)100% (Feb 17, 1:00 am)30.59 "Hg (Feb 17, 1:00 am)
Low33 °F (Feb 16, 7:00 am)43% (Feb 15, 4:00 pm)29.15 "Hg (Feb 10, 9:00 am)
Average44 °F82%30.09 "Hg
* Reported Feb 5 4:00 am — Feb 20 3:00 am, Utrecht. Weather by CustomWeather, © 2019

Note: Actual official high and low records may vary slightly from our data, if they occured in-between our weather recording intervals... More about our weather records

Advertising

Utrecht Weather History for the Previous 24 Hours

Scroll right to see more
 ConditionsComfort  
Time TempWeatherWind HumidityBarometerVisibility
3:00 am
Wed, Feb 20
42 °FOvercast.3 mph87%30.13 "Hg11 mi
2:00 am43 °FOvercast.3 mph85%30.13 "Hg12 mi
1:00 am43 °FOvercast.5 mph84%30.13 "Hg12 mi
11:00 pm
Tue, Feb 19
44 °FOvercast.5 mph86%30.13 "Hg12 mi
10:00 pm44 °FOvercast.5 mph88%30.12 "Hg10 mi
9:00 pm43 °FOvercast.3 mph86%30.12 "Hg11 mi
7:00 pm45 °FOvercast.5 mph79%30.11 "Hg12 mi
6:00 pm46 °FOvercast.5 mph75%30.10 "Hg14 mi
4:00 pm51 °FPartly sunny.6 mph67%30.09 "Hg13 mi
3:00 pm49 °FOvercast.6 mph72%30.09 "Hg14 mi
1:00 pm49 °FOvercast.6 mph76%30.07 "Hg12 mi
12:00 pm48 °FOvercast.6 mph78%30.07 "Hg12 mi
11:00 am46 °FLow clouds.6 mph87%30.07 "Hg8 mi
10:00 am44 °FLow clouds.6 mph90%30.06 "Hg6 mi
7:00 am42 °FClear.5 mph91%30.01 "Hg11 mi
5:00 am44 °FOvercast.5 mph91%29.99 "Hg8 mi
4:00 am44 °FOvercast.5 mph90%29.98 "Hg11 mi
Weather by CustomWeather, © 2019

See weather overview